Regional Weather Roundup
Issued by NWS

Home | Current Version | Previous Version | Text Only | Print | Product List | Glossary On
Versions: 1 2 3 4 5 6 7 8 9 10 11 12 13 14 15 16 17 18 19 20 21 22 23 24 25 26 27 28 29 30 31 32 33 34 35 36 37 38 39 40 41 42 43 44 45 46 47 48 49 50
000
ASUS43 KMPX 210510
RWRMN
WEATHER ROUNDUP FOR MINNESOTA
NATIONAL WEATHER SERVICE TWIN CITIES/CHANHASSEN MN
1200 AM CDT TUE APR 21 2015


NOTE: "FAIR" INDICATES FEW OR NO CLOUDS BELOW 12,000 FEET WITH NO
SIGNIFICANT WEATHER AND/OR OBSTRUCTIONS TO VISIBILITY. N/A MEANS
CURRENT SKY AND/OR WEATHER CONDITIONS ARE NOT AVAILABLE.

MNZ060>063-068>070-210600-
   Twin Cities Metro

CITY           SKY/WX    TMP DP  RH WIND       PRES   REMARKS
TWIN CITIES    CLOUDY    37  29  72 W17       29.54S
ST PAUL        CLOUDY    37  29  72 W16G26    29.54S
CRYSTAL        CLOUDY    37  29  72 NW15G24   29.53S
BLAINE         CLOUDY    37  28  70 W18G25    29.52S
LAKEVILLE      DRIZZLE   36  30  80 W16G23    29.54S
EDEN PRAIRIE   FLURRIES  37  30  75 W15G23    29.54S
SOUTH ST PAUL  CLOUDY    37  31  78 W16G23    29.53S
LAKE ELMO      MIX PCPN  36  32  87 W12       29.52F
$$
MNZ001>005-007-008-013>017-022>024-027-028-210600-
   Northwest Minnesota

CITY           SKY/WX    TMP DP  RH WIND       PRES   REMARKS
BEMIDJI        LGT SNOW  30  27  88 NW20G26   29.49F WCI  17
HALLOCK        MIX PCPN  34  30  86 NW24G31   29.60S WCI  21
ROSEAU         CLOUDY    32  27  80 NW15G22   29.51F WCI  22
WARROAD        CLOUDY    30  27  86 NW15G23   29.49S WCI  19
THIEF RVR FALL CLOUDY    30  27  86 NW22      29.57S WCI  17
CROOKSTON      CLOUDY    32  28  86 N23G30    29.61F WCI  19
FOSSTON        CLOUDY    28  25  86 NW17G23   29.56S WCI  16
DETROIT LAKES  MOCLDY    32  30  93 NW21G32   29.58F WCI  20
MOORHEAD       CLOUDY    34  28  80 N18       29.64S WCI  23
PARK RAPIDS    FLURRIES  33  26  75 NW22G28   29.50F WCI  21
MAHNOMEN       CLOUDY    31  26  83 NW25      29.57S WCI  17
$$
MNZ006-009>011-018-025>026-210600-
   North Central Minnesota

CITY           SKY/WX    TMP DP  RH WIND       PRES   REMARKS
BAUDETTE       CLOUDY    32  27  81 NW18G31   29.43S WCI  20
FLAG ISLAND    CLOUDY    32  28  86 NW24      29.45S WCI  19
INTL FALLS     LGT SNOW  32  30  92 NW13      29.37R FOG     WCI  22
WASKISH        FLURRIES  30  28  93 W17G26    29.45F WCI  18
BIG FORK       LGT SNOW  30  28  93 W8        29.41S WCI  23
LONGVILLE      CLOUDY    32  27  80 NW13G28   29.46S WCI  22
GRAND RAPIDS   CLOUDY    30  25  80 NW21G28   29.41S WCI  17
CRANE LAKE     CLOUDY    32  30  93 NW5       29.34S WCI  27
ORR            FLURRIES  30  28  93 W14       29.32S WCI  20
COOK           LGT SNOW  30  30 100 W13       29.35S WCI  20
$$
MNZ012-019>021-037-210600-
   Northeast Minnesota

CITY           SKY/WX    TMP DP  RH WIND       PRES   REMARKS
DULUTH         LGT SNOW  33  28  81 NW15G25   29.34F WCI  23
ELY            LGT SNOW  32  30  93 W8        29.29S WCI  25
HIBBING        FLURRIES  32  26  78 NW18G26   29.37S WCI  20
EVELETH        FLURRIES  32  30  93 W14G25    29.36S WCI  22
DULUTH HARBOR  CLOUDY    37  32  81 W20       29.38S
TWO HARBORS    FLURRIES  37  30  75 W14G22    29.30S
SILVER BAY     FLURRIES  36  30  80 W7        29.27S
GRAND MARAIS     N/A     35  31  85 W7        29.25S WCI  29
G MARAIS ARPRT CLOUDY    30  27  86 W10       29.20F FOG     WCI  21
$$
MNZ029>031-032-039>041-046>048-054>057-064-210600-
   West Central Minnesota

CITY           SKY/WX    TMP DP  RH WIND       PRES   REMARKS
FERGUS FALLS   CLOUDY    34  28  80 N15G21    29.63F WCI  24
WHEATON        PTCLDY    36  25  64 NW17G25   29.66F
MORRIS         MOCLDY    34  32  93 NW8       29.62S WCI  27
ALEXANDRIA     CLOUDY    34  27  75 NW22G31   29.58F WCI  22
ELBOW LAKE     CLOUDY    34  31  88 NW17      29.61S WCI  23
WADENA         MIX PCPN  30  27  86 NW18G26   29.53F WCI  18
GLENWOOD       CLOUDY    34  28  80 NW15G24   29.58S WCI  24
APPLETON       PTCLDY    39  28  65 NW12      29.64S
BENSON         MOCLDY    34  30  86 N12       29.62F WCI  25
ORTONVILLE     MOCLDY    37  27  65 NW15G22   29.65S
MADISON        CLEAR     37  27  65 NW12      29.66F
WILLMAR        MOCLDY    36  32  87 NW20G25   29.62S
$$
MNZ033>034-036-042>043-049>051-058-059-210600-
   Central Minnesota

CITY           SKY/WX    TMP DP  RH WIND       PRES   REMARKS
ST CLOUD       CLOUDY    35  27  72 NW21G26   29.53S WCI  24
SAUK CENTRE    CLOUDY    33  27  79 NW21G29   29.56S WCI  21
PAYNESVILLE    CLOUDY    32  28  83 W17G24    29.58S WCI  21
AITKIN         FLURRIES  36  28  75 W7G16     29.44S
PINE RIVER     CLOUDY    34  27  75 NW18G25   29.52S WCI  23
BRAINERD       CLOUDY    33  26  75 NW17G28   29.49S WCI  22
STAPLES        CLOUDY    30  27  86 NW16      29.52S WCI  19
LONG PRAIRIE   CLOUDY    32  27  80 W16G23    29.55S WCI  21
LITTLE FALLS   CLOUDY    34  27  75 W17G28    29.52S WCI  23
LITCHFIELD     CLOUDY    37  30  75 NW23G31   29.58S
BUFFALO        CLOUDY    36  28  74 W16G23    29.56S
MAPLE LAKE     CLOUDY    36  31  79 W15G26    29.56S
$$
MNZ037-044-045-052-053-210600-
   East Central Minnesota

CITY           SKY/WX    TMP DP  RH WIND       PRES   REMARKS
PRINCETON      CLOUDY    36  28  75 W13G24    29.51F
MORA           LGT SNOW  34  30  86 W9G16     29.49F WCI  26
CAMBRIDGE      FLURRIES  36  27  69 W10G16    29.49S
RUSH CITY      CLOUDY    33  30  88 W10G18    29.48F WCI  25
MOOSE LAKE     FLURRIES  32  30  93 W10G20    29.41S WCI  24
HINCKLEY       FLURRIES  34  32  93 W9        29.46S WCI  26
CLOQUET        LGT SNOW  34  28  80 W17G23    29.38S WCI  23
MCGREGOR       CLOUDY    32  32 100 W9G20     29.45R WCI  24
$$
MNZ071>073-080-081-089-090-097-098-210600-
   Southwest Minnesota

CITY           SKY/WX    TMP DP  RH WIND       PRES   REMARKS
MONTEVIDEO     MOCLDY    39  30  70 N17G23    29.64F
GRANITE FALLS  CLOUDY    38  30  72 W16       29.66S
CANBY          CLEAR     36  27  69 NW12      29.68F
MARSHALL       CLEAR     36  23  60 NW17      29.66F
REDWOOD FALLS  CLOUDY    39  31  72 NW15G24   29.63S
OLIVIA         CLOUDY    34  32  93 NW14G21   29.62S WCI  24
PIPESTONE      CLEAR     36  25  64 NW9       29.69S
WINDOM         CLEAR     36  28  75 W15       29.66S
WORTHINGTON    CLEAR     36  23  60 W14       29.69S
JACKSON        CLEAR     36  27  69 W10       29.67R
TRACY          CLEAR     37  28  70 NW13      29.67S
SLAYTON        CLEAR     35  25  67 W15       29.69R WCI  26
$$
MNZ065>067-074>077-082>085-091>093-210600-
   South Central Minnesota

CITY           SKY/WX    TMP DP  RH WIND       PRES   REMARKS
MANKATO        CLOUDY    37  28  70 NW18G25   29.61R
NEW ULM        CLOUDY    37  30  75 NW25G35   29.62S
ST JAMES       MOCLDY    39  30  70 W16       29.65S
FAIRMONT       PTCLDY    37  23  56 W16       29.64S
GLENCOE        CLOUDY    38  32  79 W14       29.58R
FARIBAULT      CLOUDY    37  32  81 W15G21    29.57S
OWATONNA       MOCLDY    37  30  75 W20       29.58S
WASECA         PTCLDY    37  32  81 W17G28    29.61S
ALBERT LEA     CLOUDY    37  30  75 NW14G21   29.60S
$$
MNZ078>079-086>088-094>096-210600-
   Southeast Minnesota

CITY           SKY/WX    TMP DP  RH WIND       PRES   REMARKS
ROCHESTER      CLOUDY    36  31  82 W22       29.55S
RED WING       LGT RAIN  37  34  87 NW12G17   29.52S
STANTON        CLOUDY    38  30  74 W14       29.54S
DODGE CENTER   MOCLDY    37  34  87 W17G25    29.55S
WINONA         PTCLDY    37  32  81 W14G22      N/A
AUSTIN         PTCLDY    37  28  70 W18G25    29.58F
PRESTON        MOCLDY    35  31  86 W20G28    29.56F WCI  24
$$
ABBREVIATIONS USED IN REMARKS
   TC - TEMPERATURES IN CELSIUS
  WCI - WIND CHILL INDEX
   HX - HEAT INDEX
  VSB - VISIBILITY
$$


USA.gov is the U.S. government's official web portal to all federal, state and local government web resources and services.